Adana, Turkey

7:01 PM +03 on April 24, 2017 (GMT +0300)
Adana

Weather History for LTAF - April, 2013

Change the Weather History Date:

Thursday, April 25, 2013

  Actual Average Record
Temperature  
Mean Temperature 67 °F -  
Max Temperature 84 °F 80 °F 93 °F (2014)
Min Temperature 50 °F 58 °F 44 °F (2007)
Cooling Degree Days 2    
Growing Degree Days 17 (Base 50)    
Moisture  
Dew Point 42 °F    
Average Humidity 47    
Maximum Humidity 82    
Minimum Humidity 14    
Precipitation  
Precipitation 0.00 in 0.06 in - ()
Sea Level Pressure  
Sea Level Pressure 30.09 in    
Wind  
Wind Speed 5 mph ()    
Max Wind Speed 15 mph    
Max Gust Speed -    
Visibility 3.1 miles    
Events      
Averages and records for this station are not official NWS values.
T = Trace of Precipitation, MM = Missing Value Source: Averaged Metar Reports

Daily Weather History Graph

Daily Weather History Graph

Search for Another Location

Airport or City:

Trip Planner

Search our weather history database for the weather conditions in past years. The results will help you decide how hot, cold, wet, or windy it might be!

Date:

Astronomy

Apr. 25, 2013 Rise Set
Actual Time 5:51 AM EEST 7:22 PM EEST
Civil Twilight 5:24 AM EEST 7:49 PM EEST
Nautical Twilight 4:51 AM EEST 8:22 PM EEST
Astronomical Twilight 4:16 AM EEST 8:57 PM EEST
Moon 7:10 PM EEST (4/25) 5:19 AM EEST (4/25)
Length of Visible Light 14h 25m
Length of Day
13h 30m
Full, 100% of the Moon is Illuminated
Apr 25
Full
Apr 25
Full
May 2
Last Quarter
May 10
New
May 18
First Quarter

Hourly Weather History & Observations

Time (EEST) Temp. Dew Point Humidity Pressure Visibility Wind Dir Wind Speed Gust Speed Precip Events Conditions
12:20 AM 55.4 °F 50.0 °F 82% 30.15 in 3.1 mi Variable 1.2 mph - N/A   Mist
12:50 AM 55.4 °F 50.0 °F 82% 30.15 in 3.1 mi NNE 4.6 mph - N/A   Mist
1:20 AM 55.4 °F 50.0 °F 82% 30.15 in 3.1 mi NE 5.8 mph - N/A   Mist
1:50 AM 55.4 °F 50.0 °F 82% 30.12 in 3.1 mi NW 2.3 mph - N/A   Mist
2:20 AM 57.2 °F 50.0 °F 77% 30.12 in 3.1 mi NNE 3.5 mph - N/A   Mist
2:50 AM 57.2 °F 48.2 °F 72% 30.12 in 3.1 mi NNE 4.6 mph - N/A   Mist
3:20 AM 57.2 °F 48.2 °F 72% 30.12 in 3.1 mi North 4.6 mph - N/A   Mist
3:50 AM 53.6 °F 46.4 °F 77% 30.12 in 3.1 mi ENE 3.5 mph - N/A   Mist
4:20 AM 51.8 °F 46.4 °F 82% 30.12 in 3.1 mi Variable 1.2 mph - N/A   Mist
4:50 AM 53.6 °F 46.4 °F 77% 30.12 in 3.1 mi North 3.5 mph - N/A   Mist
5:50 AM 50.0 °F 44.6 °F 82% 30.12 in 3.1 mi Calm Calm - N/A   Mist
6:20 AM 53.6 °F 46.4 °F 77% 30.12 in 3.1 mi North 3.5 mph - N/A   Mist
6:50 AM 53.6 °F 48.2 °F 82% 30.12 in 3.1 mi Variable 2.3 mph - N/A   Mist
7:20 AM 57.2 °F 48.2 °F 72% 30.12 in 3.1 mi SSE 6.9 mph - N/A   Mist
7:50 AM 60.8 °F 50.0 °F 68% 30.12 in 3.1 mi WSW 5.8 mph - N/A   Haze
8:20 AM 66.2 °F 46.4 °F 49% 30.12 in 3.1 mi Variable 4.6 mph - N/A   Haze
8:50 AM 71.6 °F 39.2 °F 31% 30.12 in - North 5.8 mph - N/A   Clear
9:20 AM 73.4 °F 33.8 °F 23% 30.12 in - North 10.4 mph - N/A   Clear
9:50 AM 77.0 °F 32.0 °F 19% 30.12 in - North 11.5 mph - N/A   Clear
10:20 AM 77.0 °F 33.8 °F 21% 30.12 in - NNE 12.7 mph - N/A   Clear
10:50 AM 80.6 °F 33.8 °F 18% 30.12 in - NNE 10.4 mph - N/A   Clear
11:20 AM 80.6 °F 32.0 °F 17% 30.12 in - NE 15.0 mph - N/A   Clear
11:50 AM 80.6 °F 30.2 °F 16% 30.12 in - NE 13.8 mph - N/A   Clear
12:20 PM 80.6 °F 30.2 °F 16% 30.09 in - NE 13.8 mph - N/A   Clear
12:50 PM 82.4 °F 35.6 °F 19% 30.09 in - ENE 11.5 mph - N/A   Clear
1:20 PM 82.4 °F 32.0 °F 16% 30.09 in - ENE 11.5 mph - N/A   Clear
1:50 PM 82.4 °F 33.8 °F 17% 30.09 in - NE 12.7 mph - N/A   Clear
2:20 PM 84.2 °F 37.4 °F 19% 30.06 in - ENE 9.2 mph - N/A   Clear
2:50 PM 84.2 °F 35.6 °F 18% 30.06 in - Variable 5.8 mph - N/A   Clear
3:20 PM 84.2 °F 30.2 °F 14% 30.04 in - East 6.9 mph - N/A   Clear
3:50 PM 84.2 °F 30.2 °F 14% 30.04 in - East 8.1 mph - N/A   Clear
4:20 PM 84.2 °F 33.8 °F 16% 30.04 in - SE 6.9 mph - N/A   Clear
4:50 PM 80.6 °F 42.8 °F 26% 30.04 in - SW 10.4 mph - N/A   Clear
5:20 PM 80.6 °F 39.2 °F 23% 30.04 in - South 9.2 mph - N/A   Clear
5:50 PM 78.8 °F 42.8 °F 28% 30.04 in - SW 9.2 mph - N/A   Clear
6:20 PM 77.0 °F 44.6 °F 32% 30.04 in - SW 10.4 mph - N/A   Clear
6:50 PM 73.4 °F 41.0 °F 31% 30.04 in - SW 8.1 mph - N/A   Clear
7:20 PM 68.0 °F 44.6 °F 43% 30.04 in - SW 6.9 mph - N/A   Clear
7:50 PM 66.2 °F 44.6 °F 46% 30.04 in - SW 5.8 mph - N/A   Clear
8:20 PM 66.2 °F 46.4 °F 49% 30.04 in - SW 3.5 mph - N/A   Clear
8:50 PM 66.2 °F 48.2 °F 52% 30.06 in - WSW 4.6 mph - N/A   Clear
9:20 PM 62.6 °F 48.2 °F 59% 30.06 in - SSW 3.5 mph - N/A   Clear
9:50 PM 62.6 °F 48.2 °F 59% 30.06 in 3.1 mi SSW 2.3 mph - N/A   Haze
10:20 PM 64.4 °F 50.0 °F 59% 30.06 in 3.1 mi Variable 2.3 mph - N/A   Haze
10:50 PM 60.8 °F 50.0 °F 68% 30.04 in 3.1 mi Calm Calm - N/A   Haze
11:20 PM 60.8 °F 50.0 °F 68% 30.06 in 3.1 mi SE 5.8 mph - N/A   Haze
11:50 PM 59.0 °F 50.0 °F 72% 30.06 in 3.1 mi Variable 2.3 mph - N/A   Haze